Content
SEND FEEDBACK

Daily
Averages
Monthly
Summary
United States of America

AGAT, GUAM


Home > North America > United States > Guam
Elevation: 364 feet     Latitude: 13 33N     Longitude: 144 50E

WEATHER
 
SELECT A DAY
Number of Records: 213,786;   Date Range: 1/1/95 - 10/20/14
 
SHARE

PRINT THIS DATA

[ ← Previous Day ]
WEATHER ALMANAC - AUGUST 20, 2013
[ Next Day → ]
[ °C ]   °F
Weather ElementAverageHighLow
Temperature84 °F88 °F (12:54 pm)79 °F (5:54 am)
Dewpoint76.6 °F78.1 °F (4:54 pm)73.9 °F (2:54 pm)
Humidity78.8 %91 % (10:54 pm)63 % (2:54 pm)
Barometer29.80 in29.85 in (10:19 am)29.75 in (3:54 pm)
Wind Speed8.2 mph11.5 mph (9:54 am)
Weather ElementAverage
Visibility9.8 mi
Wind DirectionENE (83.9 °)

Weather ElementTotal
Precipitation0.01 in
Cooling Degree Days18.5 (Base 65)
Growing Degree Days33.5 (Base 50)
Averaged from 28 records on August 20, 2013
WEATHER CONDITIONS BREAKOUT
WIND DIRECTION BREAKOUT
WEATHER BY HOUR - AUGUST 20, 2013
[ °C ]   °F
Local TimeTemperatureDewpointHumidityBarometerVisibilityWind DirectionWind SpeedGust SpeedPrecipitationEventsConditions
1:54 AM81.0 °F77.0 °F88 %29.79 in10.0 miEast (90°)3.5 mphClear
2:54 AM81.0 °F75.9 °F85 %29.78 in10.0 miEast (80°)4.6 mphClear
3:54 AM80.1 °F75.9 °F87 %29.76 in10.0 miEast (90°)3.5 mph0.00 inPartly Cloudy
4:54 AM80.1 °F75.9 °F87 %29.77 in10.0 miEast (80°)3.5 mphClear
5:54 AM79.0 °F75.9 °F90 %29.78 in10.0 miESE (120°)4.6 mphPartly Cloudy
6:54 AM81.0 °F77.0 °F88 %29.79 in10.0 miENE (70°)5.8 mph0.00 inPartly Cloudy
7:54 AM84.0 °F75.9 °F76 %29.81 in10.0 miEast (90°)8.1 mphClear
8:54 AM86.0 °F75.9 °F72 %29.83 in10.0 miEast (100°)9.2 mphScattered Clouds
9:54 AM86.0 °F77.0 °F74 %29.84 in10.0 miEast (90°)11.5 mphMostly Cloudy
10:19 AM86.0 °F77.0 °F74 %29.85 in10.0 miESE (110°)10.4 mphMostly Cloudy
10:54 AM87.1 °F77.0 °F72 %29.82 in10.0 miEast (90°)10.4 mphPartly Cloudy
11:54 AM87.1 °F77.0 °F72 %29.82 in10.0 miEast (90°)11.5 mphScattered Clouds
12:54 PM88.0 °F75.9 °F67 %29.80 in10.0 miENE (70°)8.1 mphClear
1:54 PM88.0 °F75.9 °F67 %29.77 in10.0 miEast (100°)11.5 mphPartly Cloudy
2:24 PM87.8 °F77.0 °F70 %29.78 in10.0 miEast (80°)10.4 mphMostly Cloudy
2:45 PM87.8 °F75.2 °F66 %29.79 in10.0 miEast (90°)9.2 mphPartly Cloudy
2:54 PM88.0 °F73.9 °F63 %29.76 in10.0 miEast (80°)11.5 mphPartly Cloudy
3:54 PM88.0 °F75.0 °F65 %29.75 in10.0 miEast (80°)11.5 mphScattered Clouds
4:54 PM84.9 °F78.1 °F80 %29.77 in10.0 miENE (70°)10.4 mphClear
5:54 PM84.9 °F77.0 °F77 %29.76 in10.0 miEast (80°)8.1 mphClear
6:54 PM82.9 °F77.0 °F82 %29.79 in10.0 miENE (70°)8.1 mphPartly Cloudy
7:54 PM82.0 °F77.0 °F85 %29.81 in10.0 miENE (70°)8.1 mphPartly Cloudy
8:34 PM82.4 °F77.0 °F84 %29.83 in10.0 miNE (50°)4.6 mphThunderstormMostly Cloudy
8:51 PM82.4 °F77.0 °F84 %29.85 in7.0 miEast (100°)8.1 mph0.00 inRainLight Rain
8:54 PM81.0 °F77.0 °F88 %29.83 in8.0 miESE (120°)8.1 mph0.00 inRainRain
9:54 PM82.0 °F78.1 °F88 %29.83 in10.0 miENE (70°)9.2 mph0.01 inScattered Clouds
10:54 PM81.0 °F78.1 °F91 %29.84 in10.0 miNE (50°)5.8 mphScattered Clouds
11:54 PM82.0 °F77.0 °F85 %29.81 in10.0 miENE (70°)11.5 mphPartly Cloudy
Hourly data recorded from PGUM, located miles away from Agat, Guam







STORIES FROM OUR PARTNERS